Change the Weather History Date:

Monday, May 19, 2014

  Actual Average Record
Temperature  
Mean Temperature 59 °F 64 °F  
Max Temperature 73 °F 74 °F 89 °F (2012)
Min Temperature 45 °F 54 °F 33 °F (2002)
Degree Days  
Heating Degree Days 6 4  
Month to date heating degree days 103 105  
Since 1 July heating degree days 5702 5365  
Cooling Degree Days 0 3  
Month to date cooling degree days 56 28  
Year to date cooling degree days 66 41  
Growing Degree Days 9 (Base 50)    
Moisture  
Dew Point 42 °F    
Average Humidity 61    
Maximum Humidity 86    
Minimum Humidity 35    
Precipitation  
Precipitation 0.00 in 0.17 in 0.45 in (2008)
Month to date precipitation 3.25 3.46  
Year to date precipitation 14.59 15.96  
Sea Level Pressure  
Sea Level Pressure 30.20 in    
Wind  
Wind Speed 9 mph (SE)    
Max Wind Speed 17 mph    
Max Gust Speed 22 mph    
Visibility 10 miles    
Events      
T = Trace of Precipitation, MM = Missing Value Source: NWS Daily Summary

Daily Weather History Graph

Daily Weather History Graph

Search for Another Location

Airport or City:

Trip Planner

Search our weather history database for the weather conditions in past years. The results will help you decide how hot, cold, wet, or windy it might be!

Date:

Astronomy

May. 19, 2014 Rise Set
Actual Time 6:25 AM EDT 8:54 PM EDT
Civil Twilight 5:54 AM EDT 9:25 PM EDT
Nautical Twilight 5:16 AM EDT 10:03 PM EDT
Astronomical Twilight 4:34 AM EDT 10:46 PM EDT
Moon 12:41 AM EDT (5/19) 11:22 AM EDT (5/19)
Length of Visible Light 15h 30m
Length of Day
14h 28m
Waning Gibbous, 71% of the Moon is Illuminated
May 19
Waning Gibbous
May 21
Last Quarter
May 28
New
Jun 5
First Quarter
Jun 13
Full

Hourly Weather History & Observations

Time (EDT) Temp. Windchill Dew Point Humidity Pressure Visibility Wind Dir Wind Speed Gust Speed Precip Events Conditions
12:53 AM 48.9 °F - 44.1 °F 83% 30.25 in 10.0 mi East 3.5 mph - N/A   Clear
1:53 AM 48.0 °F - 42.1 °F 80% 30.24 in 10.0 mi East 5.8 mph - N/A   Clear
2:53 AM 48.0 °F - 41.0 °F 77% 30.25 in 10.0 mi East 4.6 mph - N/A   Clear
3:53 AM 48.0 °F - 41.0 °F 77% 30.25 in 10.0 mi East 3.5 mph - N/A   Clear
4:53 AM 46.0 °F 43.9 °F 41.0 °F 83% 30.26 in 10.0 mi East 4.6 mph - N/A   Clear
5:53 AM 46.0 °F 44.8 °F 39.9 °F 79% 30.27 in 10.0 mi East 3.5 mph - N/A   Clear
6:53 AM 46.0 °F - 39.9 °F 79% 30.28 in 10.0 mi Calm Calm - N/A   Clear
7:53 AM 50.0 °F - 42.1 °F 74% 30.29 in 10.0 mi Calm Calm - N/A   Clear
9:53 AM 60.1 °F - 42.1 °F 51% 30.29 in 10.0 mi SSE 9.2 mph - N/A   Clear
10:53 AM 64.0 °F - 41.0 °F 43% 30.28 in 10.0 mi SE 11.5 mph 18.4 mph N/A   Clear
11:53 AM 66.0 °F - 41.0 °F 40% 30.27 in 10.0 mi SE 6.9 mph - N/A   Clear
12:53 PM 66.9 °F - 42.1 °F 40% 30.24 in 10.0 mi SSE 15.0 mph 20.7 mph N/A   Clear
2:53 PM 71.1 °F - 42.1 °F 35% 30.20 in 10.0 mi South 13.8 mph - N/A   Clear
3:53 PM 71.1 °F - 43.0 °F 36% 30.18 in 10.0 mi SE 10.4 mph 19.6 mph N/A   Clear
4:53 PM 72.0 °F - 42.1 °F 34% 30.16 in 10.0 mi SSE 12.7 mph - N/A   Clear
5:53 PM 72.0 °F - 42.1 °F 34% 30.14 in 10.0 mi SSE 15.0 mph - N/A   Clear
6:53 PM 71.1 °F - 42.1 °F 35% 30.11 in 10.0 mi SSE 15.0 mph - N/A   Clear
7:53 PM 70.0 °F - 44.1 °F 39% 30.09 in 10.0 mi SSE 13.8 mph - N/A   Clear
8:53 PM 66.0 °F - 46.0 °F 48% 30.09 in 10.0 mi SSE 9.2 mph - N/A   Clear
9:53 PM 64.0 °F - 45.0 °F 50% 30.07 in 10.0 mi SE 11.5 mph - N/A   Clear
10:53 PM 64.0 °F - 45.0 °F 50% 30.07 in 10.0 mi SE 11.5 mph - N/A   Clear
11:53 PM 64.0 °F - 45.0 °F 50% 30.09 in 10.0 mi SE 10.4 mph - N/A   Clear